Location: Milton
(43.5183°N, 79.8775°W)
Time: 08:55:20
(UTC+00:00)

Gurwin Techsat 1B - Pass Details

Date: 21 April 2024
Orbit: 811 x 812 km, 98.9° (Epoch: 29 May)

Event Time Altitude Azimuth Distance (km) Brightness Sun altitude
Rises 08:19:13 0° 21° (NNE) 3,345 12.9 -20.8°
Reaches altitude 10° 08:21:43 10° 29° (NNE) 2,409 12.1 -20.5°
Maximum altitude 08:26:43 40° 98° (E) 1,183 9.8 -19.8°
Drops below altitude 10° 08:31:40 10° 168° (SSE) 2,392 10.8 -19.1°
Enters shadow 08:31:59 - 169° (S) 2,505 10.9 -19.0°
